V. C. Bird International Airport

Airport
ICAO code: 
TAPA
IATA Code: 
ANU
Summary
ICAO Region: 
CARSAM
Location: 
St. John's, Antigua
Serving: 
St. John's
Elevation: 
62 ft
Coordinates: 
Aerial View: 
17° 8' 12" N, 61° 47' 34" W
Metar
Observation
TAPA 201100Z 10007KT 040V160 9999 FEW018 27/22 Q1019 NOSIG
Station
Vc Bird International Airport Antigua
Date/Time
2022-05-20 11:00:00
Wind direction
100°
Wind speed
07 kts
Lowest cloud amount
few clouds
Temperature
27°C
Dew point
22°C
Humidity
74%
QNH
1019 hPa
Weather condition
n/a

V.C. Bird International Airport is located on the island of Antigua, 8 km northeast of St. John's, the capital of Antigua and Barbuda.

Climatology

Tropical Monsoon climate (Köppen climate classification Am) - monthly mean temperatures above 18°C in every month of the year and features wet and dry seasons. A tropical monsoon climate typically features less pronounced dry seasons than a tropical savanna climate and see less variance in temperatures during the course of the year. The driest month nearly always occurs at or soon after the "winter" solstice.

Runways

Designator Length Width Surface Rops
7/25 2744 45 ASP Yes/Yes
Airport map: 
Aerial View: 

Accidents and Serious Incidents at or in the vicinity of TAPA

SKYbrary Partners:

Safety knowledge contributed by: